CW1053 Weather Reports


time (UTC)temp
C
wind
direction
speed
KPH
gust
KPH
rain 1hr
cm
rain 24hr
cm
rain mn
cm
humidity
%
barometer
mb
20260510220507 21 346 0.0 1.6 0.00 0.05 0.03 68 1013.8
20260510220005 21 353 0.0 3.2 0.00 0.08 0.03 68 1013.8
20260510215502 21 337 0.0 3.2 0.00 0.08 0.03 69 1013.7
20260510215003 21 330 0.0 1.6 0.00 0.15 0.03 68 1013.8
20260510214507 21 326 0.0 1.6 0.00 0.20 0.03 68 1013.8
20260510214003 21 327 0.0 1.6 0.00 0.20 0.03 68 1013.7
20260510213505 21 328 0.0 3.2 0.00 0.20 0.03 67 1013.5
20260510213011 21 340 0.0 3.2 0.00 0.20 0.03 66 1013.2
20260510212503 21 337 0.0 3.2 0.00 0.20 0.03 66 1013.1
20260510212006 22 340 1.6 3.2 0.00 0.20 0.03 64 1013.0
20260510211518 22 326 0.0 4.8 0.00 0.20 0.03 63 1012.9
20260510211005 23 318 1.6 6.4 0.00 0.20 0.03 60 1012.8
20260510210506 23 311 1.6 6.4 0.00 0.20 0.03 53 1012.6
20260510210020 23 278 0.0 3.2 0.00 0.20 0.03 53 1012.5
20260510205510 23 288 0.0 3.2 0.00 0.20 0.03 53 1012.4
20260510205003 23 274 0.0 3.2 0.00 0.20 0.03 53 1012.5
20260510204511 24 307 1.6 3.2 0.00 0.20 0.03 52 1012.4
20260510204003 24 264 1.6 3.2 0.00 0.20 0.03 51 1012.4
20260510203503 24 264 1.6 3.2 0.00 0.20 0.03 50 1012.4
20260510203016 24 257 1.6 3.2 0.00 0.20 0.03 50 1012.3
20260510202503 24 257 1.6 3.2 0.00 0.20 0.03 50 1012.3
20260510202005 24 263 0.0 4.8 0.00 0.20 0.03 51 1012.3
20260510201510 24 267 1.6 4.8 0.00 0.20 0.03 50 1012.4
20260510201004 23 233 1.6 3.2 0.00 0.20 0.03 49 1012.4
20260510200504 24 284 1.6 3.2 0.00 0.20 0.03 50 1012.4
20260510200017 24 267 1.6 6.4 0.00 0.20 0.03 49 1012.5
20260510195507 24 266 1.6 6.4 0.00 0.20 0.03 48 1012.5
20260510195009 24 257 1.6 4.8 0.00 0.20 0.03 49 1012.4
20260510194521 24 257 1.6 4.8 0.00 0.20 0.03 48 1012.6
20260510194003 24 246 3.2 6.4 0.00 0.20 0.03 47 1012.7
20260510193504 24 259 1.6 6.4 0.00 0.20 0.03 48 1012.6
20260510193009 23 231 1.6 4.8 0.00 0.20 0.03 51 1012.6
20260510192503 23 253 3.2 4.8 0.00 0.20 0.03 52 1012.7
20260510192005 23 238 1.6 3.2 0.00 0.20 0.03 52 1012.8
20260510191509 23 261 1.6 4.8 0.00 0.20 0.03 54 1012.8
20260510191006 23 261 1.6 4.8 0.00 0.20 0.03 55 1012.8
20260510190503 23 256 1.6 3.2 0.00 0.20 0.03 56 1012.9
20260510190035 23 270 1.6 4.8 0.00 0.20 0.03 57 1012.9
20260510185504 23 252 1.6 8.0 0.00 0.20 0.03 56 1012.9
20260510185007 23 259 3.2 8.0 0.00 0.20 0.03 55 1012.9
20260510184519 23 252 0.0 3.2 0.00 0.20 0.03 56 1012.9
20260510184006 23 252 0.0 3.2 0.00 0.20 0.03 56 1012.8
20260510183509 23 261 1.6 6.4 0.00 0.20 0.03 56 1012.8
20260510183025 23 273 1.6 6.4 0.00 0.20 0.03 56 1012.8
20260510182504 23 219 3.2 6.4 0.00 0.20 0.03 56 1012.8
20260510182001 23 228 1.6 4.8 0.00 0.20 0.03 57 1012.8
20260510181508 23 227 1.6 4.8 0.00 0.20 0.03 57 1012.8
20260510181006 22 252 3.2 4.8 0.00 0.20 0.03 57 1012.8
20260510180504 22 254 1.6 4.8 0.00 0.20 0.03 59 1012.9
20260510180017 22 289 1.6 4.8 0.00 0.20 0.03 64 1012.8
20260510175504 22 309 1.6 4.8 0.00 0.20 0.03 63 1012.9
20260510175007 21 289 3.2 4.8 0.00 0.20 0.03 64 1012.9
20260510174517 21 286 0.0 3.2 0.00 0.20 0.03 65 1012.8
20260510174012 21 274 0.0 3.2 0.00 0.20 0.03 66 1012.8
20260510173508 21 274 1.6 3.2 0.00 0.20 0.03 65 1013.0
20260510173021 21 276 1.6 3.2 0.00 0.20 0.03 67 1012.9
20260510172508 21 265 1.6 3.2 0.00 0.20 0.03 66 1013.0
20260510172008 21 264 1.6 3.2 0.00 0.20 0.03 66 1013.0
20260510171509 21 263 0.0 3.2 0.00 0.20 0.03 68 1013.0
20260510171003 20 263 1.6 3.2 0.00 0.20 0.03 70 1013.1
20260510170504 20 279 1.6 3.2 0.00 0.20 0.03 68 1013.2
20260510170010 20 279 0.0 3.2 0.00 0.20 0.03 69 1013.2
20260510165503 20 283 0.0 3.2 0.00 0.20 0.03 70 1013.3
20260510165008 20 342 0.0 3.2 0.00 0.20 0.03 71 1013.3
20260510164515 20 330 0.0 3.2 0.00 0.20 0.03 71 1013.4
20260510164006 20 351 1.6 3.2 0.00 0.20 0.03 75 1013.4
20260510163508 20 316 0.0 4.8 0.00 0.20 0.03 74 1013.4
20260510163022 19 279 0.0 4.8 0.00 0.20 0.03 77 1013.4
20260510162508 19 359 0.0 3.2 0.00 0.20 0.03 76 1013.4
20260510162010 19 339 0.0 1.6 0.00 0.20 0.03 76 1013.4
20260510161526 19 314 0.0 1.6 0.00 0.20 0.03 77 1013.4
20260510161009 18 325 0.0 1.6 0.00 0.20 0.03 78 1013.6
20260510160504 18 243 0.0 3.2 0.00 0.20 0.03 82 1013.8
20260510160009 17 299 0.0 3.2 0.00 0.20 0.03 81 1013.9
20260510155503 17 309 0.0 3.2 0.00 0.20 0.03 81 1013.9
20260510155006 17 278 1.6 3.2 0.00 0.20 0.03 80 1013.9
20260510154512 17 301 0.0 1.6 0.00 0.20 0.03 84 1013.9
20260510154006 17 283 0.0 3.2 0.00 0.20 0.03 85 1013.9
20260510153508 16 283 0.0 3.2 0.00 0.20 0.03 84 1014.0
20260510153019 16 288 0.0 1.6 0.00 0.20 0.03 86 1014.1
20260510152509 16 287 1.6 1.6 0.00 0.20 0.03 87 1014.1
20260510152008 16 302 0.0 1.6 0.00 0.20 0.03 89 1014.0
20260510151526 16 302 0.0 1.6 0.00 0.20 0.03 90 1014.0
20260510151010 15 304 0.0 1.6 0.00 0.20 0.03 92 1013.9
20260510150507 15 304 0.0 1.6 0.00 0.20 0.03 92 1013.9
20260510150027 15 304 0.0 1.6 0.00 0.20 0.03 93 1014.0
20260510145509 15 303 0.0 1.6 0.00 0.20 0.03 93 1014.0
20260510145003 14 304 0.0 1.6 0.00 0.20 0.03 93 1014.0
20260510144512 13 303 0.0 1.6 0.00 0.20 0.03 93 1014.0
20260510144002 14 303 0.0 1.6 0.00 0.20 0.03 94 1014.0
20260510143509 13 303 0.0 1.6 0.00 0.20 0.03 95 1014.0
20260510143019 13 303 0.0 1.6 0.00 0.20 0.03 95 1014.0
20260510142507 13 303 0.0 1.6 0.00 0.20 0.03 94 1014.1
20260510142012 13 318 0.0 1.6 0.00 0.20 0.03 94 1014.1
20260510141523 13 318 0.0 1.6 0.00 0.20 0.03 94 1014.0
20260510141015 13 318 0.0 1.6 0.00 0.20 0.03 94 1013.9
20260510140512 13 318 0.0 0.0 0.00 0.20 0.03 94 1013.8
20260510140025 12 318 0.0 1.6 0.00 0.20 0.03 94 1013.9
20260510135507 12 318 0.0 1.6 0.00 0.20 0.03 94 1013.8
20260510135009 12 323 0.0 0.0 0.00 0.20 0.03 94 1013.8
20260510134528 12 323 0.0 0.0 0.00 0.20 0.03 94 1013.9
20260510134003 12 323 0.0 0.0 0.00 0.20 0.03 94 1013.9
20260510133503 12 323 0.0 0.0 0.00 0.20 0.03 94 1013.9
20260510133015 12 323 0.0 0.0 0.00 0.20 0.03 94 1014.0
20260510132508 12 323 0.0 0.0 0.00 0.20 0.03 95 1013.9
20260510132009 12 323 0.0 0.0 0.00 0.20 0.03 95 1013.8
20260510131519 12 323 0.0 3.2 0.00 0.20 0.03 95 1013.7
20260510131007 12 323 0.0 3.2 0.00 0.20 0.03 95 1013.6
20260510130507 12 323 0.0 3.2 0.00 0.20 0.03 95 1013.5
20260510130026 12 324 0.0 0.0 0.00 0.20 0.03 95 1013.5
20260510125507 12 324 0.0 1.6 0.00 0.20 0.03 95 1013.4
20260510125009 12 324 0.0 1.6 0.00 0.20 0.03 95 1013.5
20260510124526 12 325 0.0 0.0 0.00 0.20 0.03 95 1013.4
20260510124009 12 325 0.0 0.0 0.00 0.20 0.03 95 1013.2
20260510123509 12 325 0.0 0.0 0.00 0.20 0.03 95 1013.3
20260510123030 11 325 0.0 0.0 0.00 0.20 0.03 95 1013.2
20260510122507 11 325 0.0 0.0 0.00 0.20 0.03 95 1013.3
20260510122010 11 325 0.0 1.6 0.00 0.20 0.03 95 1013.2
20260510121517 11 325 0.0 1.6 0.00 0.20 0.03 95 1013.2
20260510121007 11 311 0.0 1.6 0.00 0.20 0.03 95 1013.1
20260510120509 11 311 0.0 1.6 0.00 0.20 0.03 95 1013.1
20260510120022 11 317 0.0 1.6 0.00 0.20 0.03 95 1013.1
20260510115507 11 317 0.0 1.6 0.00 0.20 0.03 95 1013.1
20260510115012 11 318 0.0 1.6 0.00 0.20 0.03 95 1013.1
20260510114535 11 318 0.0 1.6 0.00 0.20 0.03 95 1012.9
20260510114011 11 316 0.0 1.6 0.00 0.20 0.03 95 1012.8
20260510113510 11 316 0.0 1.6 0.00 0.20 0.03 95 1012.9
20260510113033 11 316 0.0 1.6 0.00 0.20 0.03 95 1012.8
20260510112508 11 316 0.0 1.6 0.00 0.20 0.03 95 1012.8
20260510112009 11 316 0.0 1.6 0.00 0.20 0.03 95 1012.8
20260510111515 11 320 0.0 1.6 0.00 0.20 0.03 95 1012.8
20260510111006 11 320 0.0 1.6 0.00 0.20 0.03 95 1012.6
20260510110508 11 331 0.0 1.6 0.00 0.20 0.03 95 1012.4
20260510110030 11 306 0.0 1.6 0.00 0.20 0.03 95 1012.2
20260510105509 11 306 0.0 1.6 0.00 0.20 0.03 95 1012.2
20260510105006 11 306 0.0 1.6 0.00 0.20 0.03 95 1012.3
20260510104524 11 306 0.0 1.6 0.00 0.20 0.03 95 1012.2
20260510104008 10 306 0.0 1.6 0.00 0.20 0.03 95 1012.2
20260510103509 10 306 0.0 0.0 0.00 0.20 0.03 95 1012.4
20260510103025 10 306 0.0 0.0 0.00 0.20 0.03 95 1012.4
20260510102507 10 306 0.0 0.0 0.00 0.20 0.03 95 1012.4
20260510102013 10 306 0.0 1.6 0.00 0.20 0.03 95 1012.2
20260510101525 10 306 0.0 1.6 0.00 0.20 0.03 95 1012.2
20260510101008 10 306 0.0 1.6 0.00 0.20 0.03 95 1012.2
20260510100508 10 306 0.0 3.2 0.00 0.20 0.03 94 1012.1
20260510100025 10 306 0.0 3.2 0.00 0.20 0.03 94 1012.2
20260510095508 10 306 0.0 1.6 0.00 0.20 0.03 94 1012.3
20260510095008 10 306 0.0 4.8 0.03 0.20 0.03 94 1012.2
20260510094531 10 306 1.6 4.8 0.03 0.20 0.03 94 1012.3
20260510094007 10 339 0.0 4.8 0.03 0.20 0.03 95 1012.2
20260510093516 10 306 1.6 4.8 0.03 0.20 0.03 95 1012.3
20260510093026 10 337 0.0 4.8 0.03 0.20 0.03 95 1012.2
20260510092507 10 294 1.6 6.4 0.03 0.20 0.03 95 1012.4
20260510092012 10 304 1.6 6.4 0.03 0.20 0.03 95 1012.3
20260510091527 10 302 0.0 3.2 0.03 0.20 0.03 95 1012.0
20260510091009 10 309 1.6 4.8 0.03 0.20 0.03 95 1012.2
20260510090510 10 302 0.0 4.8 0.03 0.20 0.03 95 1012.2
20260510090028 9 316 0.0 1.6 0.03 0.20 0.03 94 1012.0
20260510085512 9 320 0.0 0.0 0.03 0.20 0.03 94 1011.8
20260510085008 9 321 0.0 0.0 0.00 0.18 0.00 94 1011.9
20260510084520 9 321 0.0 0.0 0.00 0.18 0.00 94 1011.8
20260510084007 9 321 0.0 0.0 0.00 0.18 0.00 94 1011.8
20260510083508 9 320 0.0 0.0 0.00 0.18 0.00 94 1011.9
20260510083022 9 320 0.0 0.0 0.00 0.18 0.00 94 1011.8
20260510082506 9 320 0.0 0.0 0.00 0.18 0.00 94 1011.8
20260510082010 8 320 0.0 0.0 0.00 0.18 0.00 94 1011.9
20260510081526 8 320 0.0 0.0 0.00 0.18 0.00 94 1011.9
20260510081010 8 320 0.0 0.0 0.00 0.18 0.00 94 1011.8
20260510080510 8 320 0.0 0.0 0.00 0.18 0.00 94 1011.8
20260510080027 8 321 0.0 0.0 0.00 0.18 0.00 94 1011.7
20260510075508 8 320 0.0 0.0 0.00 0.18 0.00 94 1011.6
20260510075008 8 320 0.0 0.0 0.00 0.18 0.00 94 1011.7
20260510074534 8 320 0.0 0.0 0.00 0.18 0.00 94 1011.7
20260510074006 8 320 0.0 0.0 0.00 0.18 0.00 94 1011.8
20260510073507 8 320 0.0 0.0 0.00 0.18 0.00 94 1011.7
20260510073021 8 320 0.0 0.0 0.00 0.18 0.00 94 1011.7
20260510072507 8 320 0.0 0.0 0.00 0.18 0.00 94 1011.6
20260510072010 8 320 0.0 0.0 0.00 0.18 0.00 93 1011.5
20260510071528 8 320 0.0 0.0 0.00 0.18 0.00 93 1011.5
20260510071007 8 324 0.0 0.0 0.00 0.18 0.00 93 1011.5
20260510070509 8 325 0.0 0.0 0.00 0.18 0.00 93 1011.4
20260510070031 8 325 0.0 0.0 0.00 0.18 0.00 93 1011.1
20260510065503 8 325 0.0 0.0 0.00 0.18 0.00 93 1011.1
20260510065003 8 325 0.0 0.0 0.00 0.18 0.00 93 1010.9
20260510064514 8 325 0.0 0.0 0.00 0.18 0.00 93 1011.0
20260510064004 8 325 0.0 0.0 0.00 0.18 0.00 93 1011.0
20260510063507 8 325 0.0 0.0 0.00 0.18 0.00 93 1011.0
20260510063018 8 325 0.0 0.0 0.00 0.18 0.00 93 1011.1
20260510062510 8 325 0.0 0.0 0.00 0.18 0.00 93 1011.1
20260510062009 8 325 0.0 0.0 0.00 0.18 0.00 93 1011.1
20260510061527 8 325 0.0 0.0 0.00 0.18 0.00 93 1011.2
20260510061010 8 325 0.0 0.0 0.00 0.18 0.00 93 1011.1
20260510060509 8 325 0.0 0.0 0.00 0.18 0.00 93 1011.1
20260510060029 8 325 0.0 0.0 0.00 0.18 0.00 93 1011.2
20260510055510 8 325 0.0 0.0 0.00 0.18 0.00 93 1011.3
20260510055009 8 325 0.0 0.0 0.00 0.18 0.00 93 1011.3
20260510054531 8 325 0.0 0.0 0.00 0.18 0.00 93 1011.4
20260510054004 8 325 0.0 0.0 0.00 0.18 0.00 93 1011.4
20260510053506 8 325 0.0 0.0 0.00 0.18 0.00 93 1011.5
20260510053016 8 325 0.0 0.0 0.00 0.18 0.00 93 1011.4
20260510052506 8 325 0.0 0.0 0.00 0.18 0.00 92 1011.4
20260510052006 8 325 0.0 0.0 0.00 0.18 0.00 92 1011.4
20260510051522 8 325 0.0 0.0 0.00 0.18 0.00 92 1011.5
20260510051009 8 325 0.0 0.0 0.00 0.18 0.00 92 1011.4
20260510050509 8 325 0.0 0.0 0.00 0.18 0.00 92 1011.4
20260510050024 8 325 0.0 0.0 0.00 0.18 0.00 92 1011.5
20260510045510 8 325 0.0 0.0 0.00 0.18 0.00 92 1011.5
20260510045007 8 325 0.0 0.0 0.00 0.18 0.00 92 1011.5
20260510044525 8 325 0.0 0.0 0.00 0.18 0.00 92 1011.6
20260510044008 8 325 0.0 0.0 0.00 0.18 0.00 92 1011.6
20260510043509 8 328 0.0 0.0 0.00 0.18 0.00 92 1011.6
20260510043014 8 328 0.0 0.0 0.00 0.18 0.00 92 1011.6
20260510042506 8 328 0.0 0.0 0.00 0.18 0.00 92 1011.6
20260510042006 8 328 0.0 0.0 0.00 0.18 0.00 92 1011.7
20260510041519 8 328 0.0 0.0 0.00 0.18 0.00 92 1011.8
20260510041006 9 328 0.0 0.0 0.00 0.18 0.00 92 1011.7
20260510040508 9 328 0.0 0.0 0.00 0.18 0.00 92 1011.7
20260510040026 9 328 0.0 0.0 0.00 0.18 0.00 92 1011.7
20260510035507 9 328 0.0 0.0 0.00 0.18 0.18 92 1011.7
20260510035010 9 328 0.0 0.0 0.00 0.18 0.18 93 1011.6
20260510034526 8 328 0.0 0.0 0.00 0.18 0.18 92 1011.5
20260510034010 8 328 0.0 0.0 0.00 0.18 0.18 92 1011.5
20260510033509 8 328 0.0 0.0 0.00 0.18 0.18 92 1011.3
20260510033028 8 328 0.0 0.0 0.00 0.18 0.18 92 1011.3
20260510032510 8 328 0.0 0.0 0.00 0.18 0.18 92 1011.1
20260510032011 8 328 0.0 0.0 0.00 0.18 0.18 92 1011.3
20260510031521 8 328 0.0 0.0 0.00 0.18 0.18 92 1011.2
20260510031006 9 328 0.0 0.0 0.00 0.18 0.18 92 1011.2
20260510030506 9 328 0.0 0.0 0.00 0.18 0.18 92 1011.2
20260510030019 8 328 0.0 0.0 0.00 0.18 0.18 91 1011.3
20260510025508 9 328 0.0 0.0 0.00 0.18 0.18 91 1011.1
20260510025007 9 328 0.0 0.0 0.00 0.18 0.18 91 1011.0
20260510024524 9 328 0.0 0.0 0.00 0.18 0.18 91 1011.0
20260510024008 9 328 0.0 0.0 0.00 0.18 0.18 91 1011.0
20260510023506 9 330 0.0 0.0 0.00 0.18 0.18 91 1011.0
20260510023024 9 330 0.0 0.0 0.00 0.18 0.18 91 1011.0
20260510022513 10 330 0.0 0.0 0.00 0.18 0.18 91 1010.9
20260510022012 10 330 0.0 0.0 0.00 0.18 0.18 91 1010.9
20260510021534 10 330 0.0 0.0 0.00 0.18 0.18 91 1011.0
20260510021011 10 330 0.0 0.0 0.00 0.18 0.18 91 1011.0
20260510020506 10 330 0.0 0.0 0.00 0.18 0.18 91 1011.0
20260510020025 10 330 0.0 0.0 0.00 0.18 0.18 91 1011.1
20260510015507 10 330 0.0 0.0 0.00 0.18 0.18 91 1011.2
20260510015008 10 330 0.0 0.0 0.00 0.18 0.18 91 1011.3
20260510014523 10 330 0.0 0.0 0.00 0.18 0.18 90 1011.2
20260510014008 10 330 0.0 0.0 0.00 0.18 0.18 90 1011.1
20260510013512 10 330 0.0 0.0 0.00 0.18 0.18 90 1011.0
20260510013029 10 330 0.0 0.0 0.00 0.18 0.18 90 1010.9
20260510012510 11 330 0.0 0.0 0.00 0.18 0.18 90 1010.9
20260510012011 11 330 0.0 0.0 0.00 0.18 0.18 90 1010.9
20260510011526 11 330 0.0 0.0 0.00 0.18 0.18 90 1010.9
20260510011010 11 330 0.0 0.0 0.00 0.18 0.18 90 1010.9
20260510010510 11 330 0.0 0.0 0.00 0.18 0.18 90 1010.9
20260510010025 11 330 0.0 0.0 0.00 0.18 0.18 90 1010.9
20260510005509 11 330 0.0 0.0 0.00 0.18 0.18 90 1010.8
20260510005008 11 330 0.0 0.0 0.00 0.18 0.18 90 1010.7
20260510004521 11 330 0.0 0.0 0.00 0.18 0.18 90 1010.7
20260510004011 11 330 0.0 0.0 0.00 0.18 0.18 90 1010.6
20260510003510 12 330 0.0 0.0 0.00 0.18 0.18 90 1010.6
20260510003024 12 330 0.0 0.0 0.00 0.18 0.18 90 1010.7
20260510002507 12 329 0.0 0.0 0.00 0.18 0.18 89 1010.6
20260510002010 12 330 0.0 0.0 0.00 0.18 0.18 90 1010.7
20260510001536 12 330 0.0 0.0 0.00 0.18 0.18 89 1010.7
20260510001010 12 330 0.0 0.0 0.00 0.18 0.18 89 1010.6
20260510000512 12 330 0.0 0.0 0.00 0.18 0.18 89 1010.6
20260510000028 12 330 0.0 0.0 0.00 0.18 0.18 89 1010.6
20260509235510 12 330 0.0 0.0 0.00 0.18 0.18 89 1010.5
20260509235013 12 330 0.0 1.6 0.00 0.18 0.18 89 1010.6
20260509234527 12 330 0.0 1.6 0.00 0.18 0.18 89 1010.6
20260509234007 12 330 0.0 1.6 0.00 0.18 0.18 89 1010.6
20260509233509 13 330 0.0 1.6 0.00 0.18 0.18 89 1010.5
20260509233025 13 330 0.0 1.6 0.00 0.18 0.18 89 1010.4
20260509232509 13 330 0.0 1.6 0.00 0.18 0.18 89 1010.4
20260509232007 13 330 0.0 1.6 0.00 0.18 0.18 89 1010.3
20260509231524 13 330 0.0 1.6 0.00 0.18 0.18 89 1010.4
20260509231008 13 326 0.0 1.6 0.00 0.18 0.18 89 1010.4
20260509230510 13 323 0.0 1.6 0.03 0.18 0.18 88 1010.4
20260509230028 13 326 0.0 1.6 0.05 0.18 0.18 88 1010.5
20260509225510 13 326 0.0 1.6 0.05 0.18 0.18 88 1010.6
20260509225012 13 342 0.0 1.6 0.13 0.18 0.18 88 1010.6
20260509224527 13 342 0.0 3.2 0.18 0.18 0.18 88 1010.5
20260509224009 13 354 1.6 3.2 0.18 0.18 0.18 88 1010.6
20260509223507 13 321 0.0 1.6 0.18 0.18 0.18 88 1010.7
20260509223027 13 312 0.0 1.6 0.18 0.18 0.18 87 1010.8
20260509222509 13 313 0.0 4.8 0.18 0.18 0.18 87 1010.9
20260509222015 13 310 0.0 4.8 0.18 0.18 0.18 87 1010.9
20260509221527 13 312 0.0 3.2 0.18 0.18 0.18 87 1010.9
20260509221004 13 301 1.6 3.2 0.18 0.18 0.18 86 1010.8